ARCTURUS

导读

ARCTURUS(大角星)是美国Astranis公司研发的全球首颗微型地球静止轨道(MicroGEO)Ka波段通信卫星,于2023年5月1日搭载SpaceX猎鹰重型运载火箭从卡纳维拉尔角发射场发射升空。作为Astranis首颗入轨的微型静止轨道卫星,它依托软件无线电和星上推进技术,为全球政府、商业及国防客户提供通信服务,所有星载硬件在轨运行状态完好,已多次完成轨道变轨任务,验证了微型GEO卫星的技术可行性。

基本信息
目录编号:
56371
目录名称:
ARCTURUS
国际标识:
2023-060B
轨道中心:
EARTH
卫星名称:
ARCTURUS
卫星全名:
--
卫星状态:
在轨 (已飞行1170 天)
发射日期:
2023-05-01 UTC
国别 :
美国 (US)
星等 :
--
轨道信息
数据来源 国际轨道数据 AOE轨道数据
星历时间 2026-07-14T03:03:39+0800
11小时前
查看轨道信息
2026-07-12T23:00:00+0800
1天前
查看轨道信息
半长轴 42074.31km 42074.087km
偏心率 0.0000911 0.0000814
轨道倾角 2.841° 2.839°
近地点辐角 131.675° 133.708°
升交点赤经 79.611° 79.624°
平近点角 103.683° 38.207°
近地点 35692.34km 35692.525km
远地点 35700.006km 35699.375km
周期 1431.480分钟 1431.468分钟
每日圈数 1.005952 1.00596
详细信息
使用方式:
暂无
2D轨道图
3D轨道图
轨道高度分析图
轨道倾角分析图
轨道综合分析图
查看轨道综合分析图